Starlink 5711

operational
NORAD ID: 55471 Int'l Des: 2023-015 Owner: SPXS Country: US Constellation: starlink
LEOCIRCULAR

Über Starlink 5711

Beschreibung wird geladen...

Live-Position

3D-Globus wird geladen...

Nächste Überflüge

Höhenverlauf

Altitude vs Time

uPlot chart will show altitude changes over time

Zweizeiliger Elementsatz

1 55471U 23015Y 26062.15284339 .00003320 00000-0 26080-3 0 9991
2 55471 43.0065 1.2505 0000900 277.7021 82.3720 15.02522346169772
Epoch: 3. März 2026 • Age: 25 hours

Aktueller Status

Höhe 569.2 km
Geschwindigkeit 7.58 km/s
Subsatellitenpunkt -36.38°S, 44.15°E
Startdatum 2. Feb. 2023
Alter 3 years
Typ internet

Technische Details

Klassifizierung Payload
Masse 305.00 kg
Trockenmasse 290.00 kg
Gesamtmasse 305.00 kg
Länge 0.20 m
Durchmesser 2.80 m
Spannweite 9.00 m
Form Box + pan
Hersteller SPXS
Bus-Typ Starlink
Phasenstatus In Orbit
Besitzer/Staat SPXS/US

Große Konstellationen

Loading constellations...